Location: El Bakhil
(32.7726°N, 5.5387°W)
Time: 04:20:51
(UTC+00:00)

GP-B - Pass Details

Date: 03 March 2021
Orbit: 631 x 635 km, 89.8° (Epoch: 12 April)

Event Time Altitude Azimuth Distance (km) Brightness Sun altitude
Rises 19:18:04 0° 163° (SSE) 2,913 6.3 -12.8°
Reaches altitude 10° 19:20:19 10° 158° (SSE) 2,010 5.5 -13.2°
Maximum altitude 19:24:34 48° 84° (E) 831 3.3 -14.1°
Drops below altitude 10° 19:28:51 10° 10° (N) 2,023 5.6 -15.0°
Sets 19:31:08 0° 5° (N) 2,936 6.5 -15.5°
